Time,TemperatureF,DewpointF,PressureIn,WindDirection,WindDirectionDegrees,WindSpeedMPH,WindSpeedGustMPH,Humidity,HourlyPrecipIn,Conditions,Clouds,dailyrainin,SoftwareType,DateUTC
2013-04-28 04:43:00,37.6,26.1,29.97,North,-999,0.0,0.0,63,0.00,,,-99.99,FreeWX 2.04,2013-04-28 08:43:00,
2013-04-28 06:23:00,36.0,27.5,29.94,North,-999,0.0,0.0,71,0.00,,,-99.99,FreeWX 2.04,2013-04-28 10:23:00,
2013-04-28 06:28:00,35.8,27.3,29.94,North,-999,0.0,0.0,71,0.00,,,-99.99,FreeWX 2.04,2013-04-28 10:28:00,
2013-04-28 06:33:00,35.8,27.3,29.94,North,-999,0.0,0.0,71,0.00,,,-99.99,FreeWX 2.04,2013-04-28 10:33:00,
2013-04-28 06:38:00,35.8,27.7,29.94,North,-999,0.0,0.0,72,0.00,,,-99.99,FreeWX 2.04,2013-04-28 10:38:00,
2013-04-28 06:43:00,36.0,27.9,29.94,North,-999,0.0,0.0,72,0.00,,,-99.99,FreeWX 2.04,2013-04-28 10:43:00,
2013-04-28 06:48:00,36.1,28.0,29.94,North,-999,0.0,0.0,72,0.00,,,-99.99,FreeWX 2.04,2013-04-28 10:48:00,
2013-04-28 06:53:00,36.1,28.0,29.94,North,-999,0.0,0.0,72,0.00,,,-99.99,FreeWX 2.04,2013-04-28 10:53:00,
2013-04-28 06:58:00,36.3,28.6,29.94,North,-999,0.0,0.0,73,0.00,,,-99.99,FreeWX 2.04,2013-04-28 10:58:00,
2013-04-28 07:03:00,36.5,28.8,29.94,North,-999,0.0,0.0,73,0.00,,,-99.99,FreeWX 2.04,2013-04-28 11:03:00,
2013-04-28 07:08:00,36.9,28.9,29.94,North,-999,0.0,0.0,73,0.00,,,-99.99,FreeWX 2.04,2013-04-28 11:08:00,
2013-04-28 07:13:00,37.0,29.1,29.94,North,-999,0.0,0.0,73,0.00,,,-99.99,FreeWX 2.04,2013-04-28 11:13:00,
2013-04-28 07:18:00,37.2,29.7,29.94,North,-999,0.0,0.0,74,0.00,,,-99.99,FreeWX 2.04,2013-04-28 11:18:00,
2013-04-28 07:23:00,37.4,29.8,29.94,North,-999,0.0,0.0,74,0.00,,,-99.99,FreeWX 2.04,2013-04-28 11:23:00,
2013-04-28 07:28:00,37.9,30.7,29.94,North,-999,0.0,0.0,75,0.00,,,-99.99,FreeWX 2.04,2013-04-28 11:28:00,
2013-04-28 07:33:00,39.0,31.8,29.94,North,-999,0.0,0.0,75,0.00,,,-99.99,FreeWX 2.04,2013-04-28 11:33:00,
2013-04-28 07:38:00,40.8,34.2,29.94,North,-999,0.0,0.0,77,0.00,,,-99.99,FreeWX 2.04,2013-04-28 11:38:00,
2013-04-28 07:43:00,42.6,36.3,29.94,North,-999,0.0,0.0,78,0.00,,,-99.99,FreeWX 2.04,2013-04-28 11:43:00,
2013-04-28 07:48:00,44.2,38.1,29.94,North,-999,0.0,0.0,79,0.00,,,-99.99,FreeWX 2.04,2013-04-28 11:48:00,
2013-04-28 07:53:00,45.5,39.4,29.94,North,-999,0.0,0.0,79,0.00,,,-99.99,FreeWX 2.04,2013-04-28 11:53:00,
2013-04-28 07:58:00,46.8,40.6,29.94,North,-999,0.0,0.0,79,0.00,,,-99.99,FreeWX 2.04,2013-04-28 11:58:00,
2013-04-28 08:03:00,47.7,41.5,29.94,North,-999,0.0,0.0,79,0.00,,,-99.99,FreeWX 2.04,2013-04-28 12:03:00,
2013-04-28 08:08:00,48.7,42.4,29.94,North,-999,0.0,0.0,79,0.00,,,-99.99,FreeWX 2.04,2013-04-28 12:08:00,
2013-04-28 08:13:00,49.6,43.3,29.94,North,-999,0.0,0.0,79,0.00,,,-99.99,FreeWX 2.04,2013-04-28 12:13:00,
2013-04-28 08:18:00,50.2,43.5,29.94,North,-999,0.0,0.0,78,0.00,,,-99.99,FreeWX 2.04,2013-04-28 12:18:00,
2013-04-28 08:23:00,49.6,41.7,29.94,North,-999,0.0,3.6,74,0.00,,,-99.99,FreeWX 2.04,2013-04-28 12:23:00,
2013-04-28 08:28:00,49.3,39.9,29.94,North,-999,0.0,0.0,70,0.00,,,-99.99,FreeWX 2.04,2013-04-28 12:28:00,
2013-04-28 08:33:00,50.2,39.2,29.94,North,-999,0.0,0.0,66,0.00,,,-99.99,FreeWX 2.04,2013-04-28 12:33:00,
2013-04-28 08:38:00,51.1,37.2,29.94,North,-999,0.0,3.1,59,0.00,,,-99.99,FreeWX 2.04,2013-04-28 12:38:00,
2013-04-28 08:43:00,51.6,32.5,29.94,North,-999,0.0,0.0,48,0.00,,,-99.99,FreeWX 2.04,2013-04-28 12:43:00,
2013-04-28 08:48:00,52.0,29.7,29.94,North,-999,0.0,3.6,42,0.00,,,-99.99,FreeWX 2.04,2013-04-28 12:48:00,
2013-04-28 08:53:00,52.2,28.0,29.91,North,-999,0.0,3.1,39,0.00,,,-99.99,FreeWX 2.04,2013-04-28 12:53:00,
2013-04-28 08:58:00,52.5,27.0,29.91,North,-999,0.0,2.7,37,0.00,,,-99.99,FreeWX 2.04,2013-04-28 12:58:00,
2013-04-28 09:03:00,53.1,26.1,29.91,North,-999,0.0,3.1,35,0.00,,,-99.99,FreeWX 2.04,2013-04-28 13:03:00,
2013-04-28 09:08:00,53.2,23.4,29.94,North,-999,0.0,4.0,31,0.00,,,-99.99,FreeWX 2.04,2013-04-28 13:08:00,
2013-04-28 09:13:00,53.1,22.5,29.94,North,-999,0.0,4.5,30,0.00,,,-99.99,FreeWX 2.04,2013-04-28 13:13:00,
2013-04-28 09:18:00,52.9,23.0,29.94,North,-999,0.0,3.1,31,0.00,,,-99.99,FreeWX 2.04,2013-04-28 13:18:00,
2013-04-28 09:23:00,53.1,22.5,29.91,East,91,1.0,5.4,30,0.00,,,-99.99,FreeWX 2.04,2013-04-28 13:23:00,
2013-04-28 09:28:00,53.2,22.6,29.91,East,86,2.0,4.5,30,0.00,,,-99.99,FreeWX 2.04,2013-04-28 13:28:00,
2013-04-28 09:33:00,53.8,23.0,29.91,East,79,1.0,4.0,30,0.00,,,-99.99,FreeWX 2.04,2013-04-28 13:33:00,
2013-04-28 09:38:00,54.5,22.8,29.91,North,-999,0.0,3.6,29,0.00,,,-99.99,FreeWX 2.04,2013-04-28 13:38:00,
2013-04-28 09:43:00,55.0,21.7,29.91,North,-999,0.0,4.9,27,0.00,,,-99.99,FreeWX 2.04,2013-04-28 13:43:00,
2013-04-28 09:48:00,55.0,22.5,29.91,East,95,1.0,4.0,28,0.00,,,-99.99,FreeWX 2.04,2013-04-28 13:48:00,
2013-04-28 09:53:00,55.4,21.9,29.91,ESE,107,1.0,5.4,27,0.00,,,-99.99,FreeWX 2.04,2013-04-28 13:53:00,
2013-04-28 09:58:00,56.1,22.6,29.91,ESE,111,1.0,4.5,27,0.00,,,-99.99,FreeWX 2.04,2013-04-28 13:58:00,
2013-04-28 10:03:00,55.4,21.0,29.91,North,-999,0.0,4.5,26,0.00,,,-99.99,FreeWX 2.04,2013-04-28 14:03:00,
2013-04-28 10:08:00,53.6,19.6,29.91,ENE,63,1.0,4.5,26,0.00,,,-99.99,FreeWX 2.04,2013-04-28 14:08:00,
2013-04-28 10:13:00,52.2,19.2,29.91,ENE,71,1.0,4.9,27,0.00,,,-99.99,FreeWX 2.04,2013-04-28 14:13:00,
2013-04-28 10:18:00,51.6,19.6,29.91,North,-999,0.0,4.0,28,0.00,,,-99.99,FreeWX 2.04,2013-04-28 14:18:00,
2013-04-28 10:23:00,51.6,20.5,29.91,North,-999,0.0,4.5,29,0.00,,,-99.99,FreeWX 2.04,2013-04-28 14:23:00,
2013-04-28 10:28:00,51.8,20.5,29.91,East,88,1.0,4.9,29,0.00,,,-99.99,FreeWX 2.04,2013-04-28 14:28:00,
2013-04-28 10:33:00,51.4,20.3,29.91,East,82,1.0,4.9,29,0.00,,,-99.99,FreeWX 2.04,2013-04-28 14:33:00,
2013-04-28 10:38:00,51.8,22.1,29.91,ENE,74,1.0,3.1,31,0.00,,,-99.99,FreeWX 2.04,2013-04-28 14:38:00,
2013-04-28 10:43:00,52.3,21.9,29.91,East,82,1.0,5.8,30,0.00,,,-99.99,FreeWX 2.04,2013-04-28 14:43:00,
2013-04-28 10:48:00,53.1,23.2,29.91,East,95,1.0,4.5,31,0.00,,,-99.99,FreeWX 2.04,2013-04-28 14:48:00,
2013-04-28 10:53:00,53.1,21.7,29.91,East,85,1.0,4.5,29,0.00,,,-99.99,FreeWX 2.04,2013-04-28 14:53:00,
2013-04-28 10:58:00,53.1,20.8,29.91,ENE,68,1.0,4.9,28,0.00,,,-99.99,FreeWX 2.04,2013-04-28 14:58:00,
2013-04-28 11:03:00,53.8,21.4,29.91,North,-999,0.0,4.0,28,0.00,,,-99.99,FreeWX 2.04,2013-04-28 15:03:00,
2013-04-28 11:09:00,54.1,21.7,29.91,North,-999,0.0,3.1,28,0.00,,,-99.99,FreeWX 2.04,2013-04-28 15:09:00,
2013-04-28 11:14:00,53.6,20.5,29.91,East,87,1.0,6.3,27,0.00,,,-99.99,FreeWX 2.04,2013-04-28 15:14:00,
2013-04-28 11:19:00,53.6,21.4,29.91,ESE,106,1.0,5.4,28,0.00,,,-99.99,FreeWX 2.04,2013-04-28 15:19:00,
2013-04-28 11:24:00,53.4,21.2,29.91,North,-999,0.0,3.1,28,0.00,,,-99.99,FreeWX 2.04,2013-04-28 15:24:00,
2013-04-28 11:29:00,53.8,22.3,29.91,North,-999,0.0,4.9,29,0.00,,,-99.99,FreeWX 2.04,2013-04-28 15:29:00,
2013-04-28 11:34:00,53.2,21.7,29.91,East,87,1.0,4.9,29,0.00,,,-99.99,FreeWX 2.04,2013-04-28 15:34:00,
2013-04-28 11:39:00,53.4,21.2,29.91,East,92,2.0,6.3,28,0.00,,,-99.99,FreeWX 2.04,2013-04-28 15:39:00,
2013-04-28 11:44:00,52.7,21.4,29.91,East,86,2.0,5.4,29,0.00,,,-99.99,FreeWX 2.04,2013-04-28 15:44:00,
2013-04-28 11:49:00,53.1,21.7,29.91,ENE,78,1.0,4.9,29,0.00,,,-99.99,FreeWX 2.04,2013-04-28 15:49:00,
2013-04-28 11:54:00,54.0,23.2,29.88,East,89,1.0,5.4,30,0.00,,,-99.99,FreeWX 2.04,2013-04-28 15:54:00,
2013-04-28 11:59:00,54.9,23.2,29.88,ESE,109,1.0,5.4,29,0.00,,,-99.99,FreeWX 2.04,2013-04-28 15:59:00,
2013-04-28 12:04:00,54.9,21.6,29.88,ESE,121,2.0,5.4,27,0.00,,,-99.99,FreeWX 2.04,2013-04-28 16:04:00,
2013-04-28 12:09:00,55.8,22.3,29.88,ESE,111,2.0,6.7,27,0.00,,,-99.99,FreeWX 2.04,2013-04-28 16:09:00,
2013-04-28 12:14:00,55.9,21.6,29.88,ESE,112,2.0,6.3,26,0.00,,,-99.99,FreeWX 2.04,2013-04-28 16:14:00,
2013-04-28 12:19:00,57.2,22.6,29.88,SE,125,2.0,4.0,26,0.00,,,-99.99,FreeWX 2.04,2013-04-28 16:19:00,
2013-04-28 12:24:00,58.5,22.8,29.88,SE,125,1.0,4.9,25,0.00,,,-99.99,FreeWX 2.04,2013-04-28 16:24:00,
2013-04-28 12:29:00,58.6,23.0,29.88,ESE,118,2.0,5.4,25,0.00,,,-99.99,FreeWX 2.04,2013-04-28 16:29:00,
2013-04-28 12:34:00,58.1,21.6,29.88,ESE,111,2.0,5.8,24,0.00,,,-99.99,FreeWX 2.04,2013-04-28 16:34:00,
2013-04-28 12:39:00,57.6,22.1,29.88,East,95,2.0,4.9,25,0.00,,,-99.99,FreeWX 2.04,2013-04-28 16:39:00,
2013-04-28 12:44:00,58.1,22.5,29.88,East,98,2.0,4.5,25,0.00,,,-99.99,FreeWX 2.04,2013-04-28 16:44:00,
2013-04-28 12:49:00,58.6,23.0,29.88,East,100,2.0,5.8,25,0.00,,,-99.99,FreeWX 2.04,2013-04-28 16:49:00,
2013-04-28 12:54:00,59.2,23.4,29.88,East,99,2.0,6.7,25,0.00,,,-99.99,FreeWX 2.04,2013-04-28 16:54:00,
2013-04-28 12:59:00,59.2,22.5,29.88,East,98,2.0,4.9,24,0.00,,,-99.99,FreeWX 2.04,2013-04-28 16:59:00,
2013-04-28 13:04:00,58.6,21.9,29.88,East,82,2.0,5.8,24,0.00,,,-99.99,FreeWX 2.04,2013-04-28 17:04:00,
2013-04-28 13:09:00,57.4,21.9,29.85,East,84,3.0,6.7,25,0.00,,,-99.99,FreeWX 2.04,2013-04-28 17:09:00,
2013-04-28 13:14:00,56.7,22.1,29.85,East,85,3.0,6.3,26,0.00,,,-99.99,FreeWX 2.04,2013-04-28 17:14:00,
2013-04-28 13:19:00,56.3,21.0,29.85,East,87,3.0,5.8,25,0.00,,,-99.99,FreeWX 2.04,2013-04-28 17:19:00,
2013-04-28 13:24:00,55.6,22.1,29.88,East,85,3.0,5.8,27,0.00,,,-99.99,FreeWX 2.04,2013-04-28 17:24:00,
2013-04-28 13:29:00,56.1,22.6,29.88,ENE,77,2.0,6.7,27,0.00,,,-99.99,FreeWX 2.04,2013-04-28 17:29:00,
2013-04-28 13:34:00,57.2,22.6,29.88,ENE,78,2.0,5.8,26,0.00,,,-99.99,FreeWX 2.04,2013-04-28 17:34:00,
2013-04-28 13:39:00,58.5,22.8,29.85,East,82,2.0,5.4,25,0.00,,,-99.99,FreeWX 2.04,2013-04-28 17:39:00,
2013-04-28 13:44:00,59.2,23.4,29.85,East,85,2.0,5.4,25,0.00,,,-99.99,FreeWX 2.04,2013-04-28 17:44:00,
2013-04-28 13:49:00,58.8,23.0,29.85,ESE,102,3.0,5.8,25,0.00,,,-99.99,FreeWX 2.04,2013-04-28 17:49:00,
2013-04-28 13:54:00,58.3,22.6,29.85,ESE,117,3.0,6.3,25,0.00,,,-99.99,FreeWX 2.04,2013-04-28 17:54:00,
2013-04-28 13:59:00,57.4,21.9,29.85,East,99,2.0,6.3,25,0.00,,,-99.99,FreeWX 2.04,2013-04-28 17:59:00,
2013-04-28 14:04:00,57.2,21.7,29.85,East,85,2.0,6.7,25,0.00,,,-99.99,FreeWX 2.04,2013-04-28 18:04:00,
2013-04-28 14:09:00,57.2,21.7,29.85,East,84,2.0,6.3,25,0.00,,,-99.99,FreeWX 2.04,2013-04-28 18:09:00,
2013-04-28 14:14:00,56.1,21.7,29.85,ENE,74,3.0,5.8,26,0.00,,,-99.99,FreeWX 2.04,2013-04-28 18:14:00,
2013-04-28 14:19:00,56.5,22.1,29.85,ENE,77,3.0,6.7,26,0.00,,,-99.99,FreeWX 2.04,2013-04-28 18:19:00,
2013-04-28 14:24:00,55.8,22.3,29.85,ENE,78,3.0,6.3,27,0.00,,,-99.99,FreeWX 2.04,2013-04-28 18:24:00,
2013-04-28 14:29:00,57.2,23.5,29.85,East,89,3.0,7.4,27,0.00,,,-99.99,FreeWX 2.04,2013-04-28 18:29:00,
2013-04-28 14:34:00,58.1,22.5,29.85,ESE,105,2.0,7.8,25,0.00,,,-99.99,FreeWX 2.04,2013-04-28 18:34:00,
2013-04-28 14:39:00,57.9,23.2,29.85,ESE,111,3.0,6.7,26,0.00,,,-99.99,FreeWX 2.04,2013-04-28 18:39:00,
2013-04-28 14:44:00,57.6,23.0,29.85,ESE,111,3.0,5.8,26,0.00,,,-99.99,FreeWX 2.04,2013-04-28 18:44:00,
2013-04-28 14:49:00,58.5,22.8,29.85,ESE,112,2.0,4.9,25,0.00,,,-99.99,FreeWX 2.04,2013-04-28 18:49:00,
2013-04-28 14:54:00,58.8,23.0,29.85,ESE,111,2.0,5.4,25,0.00,,,-99.99,FreeWX 2.04,2013-04-28 18:54:00,
2013-04-28 14:59:00,59.9,23.0,29.85,ESE,118,2.0,4.9,24,0.00,,,-99.99,FreeWX 2.04,2013-04-28 18:59:00,
2013-04-28 15:04:00,60.1,24.1,29.85,ESE,123,2.0,4.9,25,0.00,,,-99.99,FreeWX 2.04,2013-04-28 19:04:00,
2013-04-28 15:09:00,60.4,23.5,29.85,ESE,114,2.0,4.9,24,0.00,,,-99.99,FreeWX 2.04,2013-04-28 19:09:00,
2013-04-28 15:14:00,59.9,23.0,29.85,ESE,103,2.0,4.9,24,0.00,,,-99.99,FreeWX 2.04,2013-04-28 19:14:00,
2013-04-28 15:19:00,61.2,25.0,29.85,ESE,112,2.0,4.9,25,0.00,,,-99.99,FreeWX 2.04,2013-04-28 19:19:00,
2013-04-28 15:24:00,62.2,25.0,29.85,SE,139,2.0,5.4,24,0.00,,,-99.99,FreeWX 2.04,2013-04-28 19:24:00,
2013-04-28 15:29:00,62.8,24.4,29.85,SE,142,2.0,5.4,23,0.00,,,-99.99,FreeWX 2.04,2013-04-28 19:29:00,
2013-04-28 15:34:00,61.9,23.7,29.85,ESE,116,2.0,5.4,23,0.00,,,-99.99,FreeWX 2.04,2013-04-28 19:34:00,
2013-04-28 15:39:00,63.1,25.7,29.82,SE,136,2.0,4.5,24,0.00,,,-99.99,FreeWX 2.04,2013-04-28 19:39:00,
2013-04-28 15:44:00,65.1,26.4,29.82,SSW,196,1.0,4.5,23,0.00,,,-99.99,FreeWX 2.04,2013-04-28 19:44:00,
2013-04-28 15:49:00,66.6,27.7,29.82,SSW,204,1.0,5.8,23,0.00,,,-99.99,FreeWX 2.04,2013-04-28 19:49:00,
2013-04-28 15:54:00,67.1,24.6,29.82,South,179,2.0,5.8,20,0.00,,,-99.99,FreeWX 2.04,2013-04-28 19:54:00,
2013-04-28 15:59:00,67.5,25.0,29.82,SSW,194,1.0,6.3,20,0.00,,,-99.99,FreeWX 2.04,2013-04-28 19:59:00,
2013-04-28 16:04:00,67.1,24.6,29.82,SSW,206,1.0,3.1,20,0.00,,,-99.99,FreeWX 2.04,2013-04-28 20:04:00,
2013-04-28 16:09:00,68.4,28.0,29.82,North,-999,0.0,4.0,22,0.00,,,-99.99,FreeWX 2.04,2013-04-28 20:09:00,
2013-04-28 16:14:00,69.6,29.1,29.82,North,-999,0.0,0.0,22,0.00,,,-99.99,FreeWX 2.04,2013-04-28 20:14:00,
2013-04-28 16:19:00,69.8,25.7,29.82,North,-999,0.0,3.6,19,0.00,,,-99.99,FreeWX 2.04,2013-04-28 20:19:00,
2013-04-28 16:24:00,70.2,26.1,29.82,North,-999,0.0,3.6,19,0.00,,,-99.99,FreeWX 2.04,2013-04-28 20:24:00,
2013-04-28 16:29:00,70.3,26.1,29.82,North,-999,0.0,4.0,19,0.00,,,-99.99,FreeWX 2.04,2013-04-28 20:29:00,
2013-04-28 16:34:00,69.8,23.0,29.82,North,-999,0.0,4.5,17,0.00,,,-99.99,FreeWX 2.04,2013-04-28 20:34:00,
2013-04-28 16:39:00,68.9,22.3,29.82,North,-999,0.0,0.0,17,0.00,,,-99.99,FreeWX 2.04,2013-04-28 20:39:00,
2013-04-28 16:44:00,67.3,21.0,29.82,North,-999,0.0,3.6,17,0.00,,,-99.99,FreeWX 2.04,2013-04-28 20:44:00,
2013-04-28 16:49:00,66.7,20.5,29.82,North,-999,0.0,4.0,17,0.00,,,-99.99,FreeWX 2.04,2013-04-28 20:49:00,
2013-04-28 16:54:00,65.7,19.8,29.82,North,-999,0.0,2.7,17,0.00,,,-99.99,FreeWX 2.04,2013-04-28 20:54:00,
2013-04-28 16:59:00,64.8,20.3,29.82,North,-999,0.0,3.6,18,0.00,,,-99.99,FreeWX 2.04,2013-04-28 20:59:00,
2013-04-28 17:04:00,63.1,22.6,29.82,North,-999,0.0,4.0,21,0.00,,,-99.99,FreeWX 2.04,2013-04-28 21:04:00,
2013-04-28 17:09:00,63.3,22.6,29.82,North,-999,0.0,3.6,21,0.00,,,-99.99,FreeWX 2.04,2013-04-28 21:09:00,
2013-04-28 17:14:00,63.9,25.3,29.82,North,-999,0.0,3.1,23,0.00,,,-99.99,FreeWX 2.04,2013-04-28 21:14:00,
2013-04-28 17:19:00,64.0,25.5,29.82,North,-999,0.0,4.5,23,0.00,,,-99.99,FreeWX 2.04,2013-04-28 21:19:00,
2013-04-28 17:24:00,64.0,25.5,29.82,North,-999,0.0,0.0,23,0.00,,,-99.99,FreeWX 2.04,2013-04-28 21:24:00,
2013-04-28 17:29:00,64.8,26.1,29.82,North,-999,0.0,3.1,23,0.00,,,-99.99,FreeWX 2.04,2013-04-28 21:29:00,
2013-04-28 17:34:00,65.3,26.6,29.82,North,-999,0.0,4.9,23,0.00,,,-99.99,FreeWX 2.04,2013-04-28 21:34:00,
2013-04-28 17:39:00,66.0,26.1,29.82,North,-999,0.0,0.0,22,0.00,,,-99.99,FreeWX 2.04,2013-04-28 21:39:00,
2013-04-28 17:44:00,66.2,26.2,29.82,North,-999,0.0,4.0,22,0.00,,,-99.99,FreeWX 2.04,2013-04-28 21:44:00,
2013-04-28 17:49:00,65.3,26.6,29.82,North,-999,0.0,0.0,23,0.00,,,-99.99,FreeWX 2.04,2013-04-28 21:49:00,
2013-04-28 17:54:00,64.2,25.7,29.82,North,-999,0.0,4.0,23,0.00,,,-99.99,FreeWX 2.04,2013-04-28 21:54:00,
2013-04-28 17:59:00,63.5,25.0,29.82,North,-999,0.0,0.0,23,0.00,,,-99.99,FreeWX 2.04,2013-04-28 21:59:00,
2013-04-28 18:04:00,62.6,25.3,29.82,North,-999,0.0,5.8,24,0.00,,,-99.99,FreeWX 2.04,2013-04-28 22:04:00,
2013-04-28 18:09:00,63.0,25.7,29.82,North,-999,0.0,4.0,24,0.00,,,-99.99,FreeWX 2.04,2013-04-28 22:09:00,
2013-04-28 18:14:00,62.2,25.0,29.82,North,-999,0.0,3.1,24,0.00,,,-99.99,FreeWX 2.04,2013-04-28 22:14:00,
2013-04-28 18:19:00,61.5,25.3,29.82,North,-999,0.0,0.0,25,0.00,,,-99.99,FreeWX 2.04,2013-04-28 22:19:00,
2013-04-28 18:24:00,61.2,25.0,29.82,North,-999,0.0,3.6,25,0.00,,,-99.99,FreeWX 2.04,2013-04-28 22:24:00,
2013-04-28 18:29:00,61.3,25.2,29.82,North,-999,0.0,0.0,25,0.00,,,-99.99,FreeWX 2.04,2013-04-28 22:29:00,
2013-04-28 18:34:00,61.5,26.2,29.82,North,-999,0.0,4.0,26,0.00,,,-99.99,FreeWX 2.04,2013-04-28 22:34:00,
2013-04-28 18:39:00,61.3,26.2,29.82,North,-999,0.0,4.0,26,0.00,,,-99.99,FreeWX 2.04,2013-04-28 22:39:00,
2013-04-28 18:44:00,61.0,25.9,29.82,SSW,207,1.0,4.0,26,0.00,,,-99.99,FreeWX 2.04,2013-04-28 22:44:00,
2013-04-28 18:49:00,60.3,25.2,29.82,North,-999,0.0,0.0,26,0.00,,,-99.99,FreeWX 2.04,2013-04-28 22:49:00,
2013-04-28 18:54:00,59.2,24.3,29.82,North,-999,0.0,0.0,26,0.00,,,-99.99,FreeWX 2.04,2013-04-28 22:54:00,
2013-04-28 18:59:00,58.3,24.4,29.82,North,-999,0.0,0.0,27,0.00,,,-99.99,FreeWX 2.04,2013-04-28 22:59:00,
2013-04-28 19:04:00,57.7,24.8,29.82,North,-999,0.0,4.0,28,0.00,,,-99.99,FreeWX 2.04,2013-04-28 23:04:00,
2013-04-28 19:09:00,57.4,25.3,29.82,North,-999,0.0,4.0,29,0.00,,,-99.99,FreeWX 2.04,2013-04-28 23:09:00,
2013-04-28 19:14:00,56.7,24.8,29.82,North,-999,0.0,3.6,29,0.00,,,-99.99,FreeWX 2.04,2013-04-28 23:14:00,
2013-04-28 19:19:00,55.6,24.6,29.82,North,-999,0.0,0.0,30,0.00,,,-99.99,FreeWX 2.04,2013-04-28 23:19:00,
2013-04-28 19:24:00,54.3,24.3,29.82,North,-999,0.0,4.5,31,0.00,,,-99.99,FreeWX 2.04,2013-04-28 23:24:00,
2013-04-28 19:29:00,53.4,26.4,29.82,North,-999,0.0,0.0,35,0.00,,,-99.99,FreeWX 2.04,2013-04-28 23:29:00,
2013-04-28 19:34:00,53.8,27.5,29.82,North,-999,0.0,0.0,36,0.00,,,-99.99,FreeWX 2.04,2013-04-28 23:34:00,
2013-04-28 19:39:00,53.6,27.3,29.82,North,-999,0.0,0.0,36,0.00,,,-99.99,FreeWX 2.04,2013-04-28 23:39:00,
2013-04-28 19:44:00,53.1,26.8,29.82,North,-999,0.0,0.0,36,0.00,,,-99.99,FreeWX 2.04,2013-04-28 23:44:00,
2013-04-28 19:49:00,52.2,26.6,29.82,North,-999,0.0,0.0,37,0.00,,,-99.99,FreeWX 2.04,2013-04-28 23:49:00,
2013-04-28 19:54:00,51.8,27.0,29.82,North,-999,0.0,0.0,38,0.00,,,-99.99,FreeWX 2.04,2013-04-28 23:54:00,
2013-04-28 19:59:00,51.6,27.5,29.82,North,-999,0.0,0.0,39,0.00,,,-99.99,FreeWX 2.04,2013-04-28 23:59:00,
2013-04-28 20:04:00,51.8,27.7,29.82,North,-999,0.0,0.0,39,0.00,,,-99.99,FreeWX 2.04,2013-04-29 00:04:00,
2013-04-28 20:09:00,51.6,27.5,29.79,North,-999,0.0,0.0,39,0.00,,,-99.99,FreeWX 2.04,2013-04-29 00:09:00,
2013-04-28 20:14:00,51.4,27.3,29.79,North,-999,0.0,0.0,39,0.00,,,-99.99,FreeWX 2.04,2013-04-29 00:14:00,
2013-04-28 20:19:00,51.1,27.7,29.79,North,-999,0.0,0.0,40,0.00,,,-99.99,FreeWX 2.04,2013-04-29 00:19:00,
2013-04-28 20:24:00,50.9,27.5,29.79,North,-999,0.0,0.0,40,0.00,,,-99.99,FreeWX 2.04,2013-04-29 00:24:00,
2013-04-28 20:29:00,50.5,27.1,29.79,North,-999,0.0,0.0,40,0.00,,,-99.99,FreeWX 2.04,2013-04-29 00:29:00,
2013-04-28 20:34:00,50.4,27.5,29.79,North,-999,0.0,0.0,41,0.00,,,-99.99,FreeWX 2.04,2013-04-29 00:34:00,
2013-04-28 20:39:00,50.0,27.3,29.79,North,-999,0.0,0.0,41,0.00,,,-99.99,FreeWX 2.04,2013-04-29 00:39:00,
2013-04-28 20:44:00,49.8,27.7,29.79,North,-999,0.0,0.0,42,0.00,,,-99.99,FreeWX 2.04,2013-04-29 00:44:00,
2013-04-28 20:49:00,49.8,27.7,29.79,North,-999,0.0,0.0,42,0.00,,,-99.99,FreeWX 2.04,2013-04-29 00:49:00,
2013-04-28 20:54:00,49.6,28.0,29.79,North,-999,0.0,0.0,43,0.00,,,-99.99,FreeWX 2.04,2013-04-29 00:54:00,
2013-04-28 20:59:00,49.6,29.1,29.79,North,-999,0.0,0.0,45,0.00,,,-99.99,FreeWX 2.04,2013-04-29 00:59:00,
2013-04-28 21:04:00,49.6,29.7,29.79,North,-999,0.0,0.0,46,0.00,,,-99.99,FreeWX 2.04,2013-04-29 01:04:00,
2013-04-28 21:09:00,49.6,29.7,29.79,North,-999,0.0,0.0,46,0.00,,,-99.99,FreeWX 2.04,2013-04-29 01:09:00,
2013-04-28 21:14:00,49.6,30.2,29.79,North,-999,0.0,0.0,47,0.00,,,-99.99,FreeWX 2.04,2013-04-29 01:14:00,
2013-04-28 21:19:00,49.3,29.8,29.79,North,-999,0.0,0.0,47,0.00,,,-99.99,FreeWX 2.04,2013-04-29 01:19:00,
2013-04-28 21:24:00,48.9,30.6,29.79,North,-999,0.0,0.0,49,0.00,,,-99.99,FreeWX 2.04,2013-04-29 01:24:00,